Погода в Жуан-Песоа

Бразилия     7°05′35″S   34°51′02″W
темп.,
°C
ветер,
м/с
пор.,
м/с
влажн.,
%
обл.,
%
осадки,
мм/ч
давл.,
гПа
погр.,
м
20 января, чт
чт2000:00+27юв567312 0.0 1014812
03:00+27юв457370 0.0 1012642
06:00+27юв457596 0.0 1013754
09:00+28юв44728 0.1 1014888
12:00+28вюв55725 0.1 1013789
15:00+28вюв557018 0.1 1011863
18:00+27вюв67741 0.0 1011774
21:00+27вюв677914 0.1 1013714
21 января, пт
пт2100:00+27в667872 0.4 1012707
03:00+26в4578100 1.5 1011603
06:00+27вюв567427 0.4 1011772
09:00+28в556620 0.4 10121064
12:00+28в4466100 0.0 10111014
15:00+28вюв446619 0.0 1009921
18:00+27в55694 0.0 1010743
21:00+27вюв667094 0.0 1011741
22 января, сб
сб2200:00+27вюв56743 0.0 1011704
03:00+27вюв347614 0.2 1009652
06:00+26вюв347786 0.7 1011568
09:00+27в447317 1.8 1012819
12:00+27вюв44724 1.5 1011609
15:00+28вюв54709 2.5 1010882
18:00+27вюв556814 0.0 1010699
21:00+27в67685 0.0 1012764
23 января, вс
вс2300:00+27в5671100 0.0 1011713
03:00+27в4575100 0.1 1010701
06:00+27всв347464 2.6 1012556
09:00+28св446966 3.1 1013971
12:00+28всв557114 0.4 1012892
15:00+28св557014 0.5 1010955
18:00+27всв55660 0.0 1011731
21:00+27всв55683 0.0 1013718
24 января, пн
пн2400:00+27всв456981 0.0 1012714
03:00+26всв447312 0.0 1010717
06:00+27всв347513 0.1 1011646
09:00+28всв457315 0.3 1012895
12:00+28всв55706 0.4 1011976
15:00+28всв55685 0.5 10101026
18:00+27в567269 0.0 1011780
21:00+27в677439 0.0 1012858